[[{"header":{"parameterUnit":"m.s-1","parameterCategory":1,"la1":30.2991,"la2":30.254,"lo1":-89.0895,"lo2":-89.0444,"dy":0.0017,"dx":0.0017,"nx":28,"ny":28,"refTime":"2025-11-04T09:00:00:Z","depth":0,"parameterNumber":2,"parameterNumberName":"U-component_of_WINDS"},"data":[0,0,0,0,0,0,0,0,0,0,0,0,0,0,0,0,0,0,0,0,0,0,0,0,0,0,0,0,0,0,0,0,0,0,0,0,0,0,0,0,0,0,0,0,0,0,0,0,0,0,0,0,0,0,0,0,0,0,-1.3055,-1.3055,0,-1.309,-1.3091,-1.3091,-1.303,-1.3028,-1.3026,-1.3024,-1.3061,-1.3063,-1.3066,0,0,0,0,0,0,0,0,0,0,0,0,0,-1.2934,-1.2937,-1.3055,-1.3055,-1.3056,-1.309,-1.3091,-1.3091,-1.303,-1.3028,-1.3025,-1.3023,-1.306,-1.3063,-1.3067,0,0,0,0,0,0,0,0,0,0,0,0,0,-1.298,-1.2938,-1.3055,-1.3029,-1.3028,-1.309,-1.3091,-1.3091,-1.3031,-1.3028,-1.3024,-1.3022,-1.3058,-1.3063,-1.3067,-1.3156,0,0,-1.308,-1.3082,0,0,0,0,0,0,0,0,-1.2977,-1.2984,-1.3033,-1.3031,-1.3029,-1.3052,-1.3061,-1.3113,-1.3031,-1.303,-1.3024,-1.302,-1.306,-1.3064,-1.3078,-1.3158,-1.3159,-1.3081,-1.3083,-1.3085,-1.3087,0,0,0,0,0,0,0,-1.2974,-1.2982,-1.3069,-1.3033,-1.3031,-1.3016,-1.3019,-1.3071,-1.3062,-1.3029,-1.3025,-1.303,-1.3059,-1.3074,-1.3078,-1.316,-1.3081,-1.3085,-1.3087,-1.3089,-1.3314,-1.3317,0,0,0,0,0,0,-1.2974,-1.298,-1.3068,-1.307,-1.2995,-1.3021,-1.3024,-1.3048,-1.3061,-1.306,-1.3033,-1.3027,-1.3068,-1.3073,-1.3079,-1.3185,-1.3085,-1.3089,-1.3092,-1.3311,-1.3315,-1.3318,0,0,0,0,0,0,-1.2972,-1.2983,-1.3066,-1.3024,-1.3033,-1.3026,-1.3054,-1.305,-1.3065,-1.3064,-1.3062,-1.305,-1.3066,-1.3073,-1.3137,-1.3185,-1.3091,-1.3095,-1.3307,-1.3312,-1.3317,-1.3396,0,0,0,0,0,0,-1.2969,-1.2982,-1.3016,-1.3025,-1.3036,-1.3124,-1.3056,-1.3053,-1.3073,-1.3066,-1.3079,-1.3078,-1.3064,-1.3131,-1.3142,-1.319,-1.3099,-1.3302,-1.3309,-1.3315,-1.3389,-1.3403,-1.3415,0,0,0,0,0,-1.2965,-1.3037,-1.3018,-1.3029,-1.3078,-1.3127,-1.3133,-1.3115,-1.3077,-1.3111,-1.311,-1.3078,-1.3178,-1.3138,-1.315,-1.3199,-1.3299,-1.3307,-1.3315,-1.3384,-1.3401,-1.3415,0,0,0,0,0,0,-1.3035,-1.3038,-1.3017,-1.3095,-1.3111,-1.3117,-1.3159,-1.3134,-1.3161,-1.3154,-1.3129,-1.3133,-1.3202,-1.3207,-1.3163,-1.3286,-1.3232,-1.3242,-1.3281,-1.3297,-1.331,-1.3308,-1.3102,0,0,0,0,0,-1.3059,-1.3099,-1.3099,-1.3168,-1.3177,-1.3167,-1.3187,-1.3172,-1.3188,-1.3194,-1.3198,-1.3214,-1.3249,-1.3273,-1.3305,-1.3389,-1.3391,-1.3429,-1.3442,-1.3452,-1.3462,-1.3507,-1.3524,-1.3343,-1.3343,-1.3343,0,0,-1.3111,-1.3117,-1.3144,-1.3182,-1.3193,-1.3234,-1.3173,-1.322,-1.325,-1.3201,-1.3262,-1.3265,-1.3282,-1.3356,-1.3389,-1.3363,-1.3512,-1.3462,-1.3471,-1.3475,-1.3516,-1.3533,-1.3549,-1.3348,-1.3347,-1.3347,0,0,-1.3226,-1.3234,-1.3293,-1.3304,-1.3321,-1.3313,-1.3327,-1.3336,-1.3336,-1.3397,-1.3361,-1.3396,-1.3457,-1.3471,-1.3486,-1.3604,-1.3576,-1.3615,-1.3684,-1.3728,-1.3742,-1.3754,-1.3797,-1.3813,-1.3624,-1.3624,-1.3624,0,-1.3288,-1.3349,-1.3326,-1.3375,-1.3393,-1.3349,-1.3408,-1.3421,-1.3447,-1.3461,-1.343,-1.3505,-1.3513,-1.359,-1.3619,-1.3632,-1.3647,-1.3614,-1.3742,-1.3754,-1.3765,-1.3806,-1.3822,-1.3629,-1.3629,-1.3628,-1.3628,0,-1.3424,-1.3467,-1.3512,-1.3538,-1.3561,-1.3615,-1.36,-1.3625,-1.3607,-1.3603,-1.3664,-1.3672,-1.3705,-1.3722,-1.3705,-1.3797,-1.3779,-1.3745,-1.3691,-1.3788,-1.3826,-1.3841,-1.3636,-1.3634,-1.3633,-1.3632,0,0,-1.3587,-1.3599,-1.3616,-1.3627,-1.3642,-1.3674,-1.3725,-1.3757,-1.378,-1.3798,-1.3841,-1.3893,-1.3861,-1.3878,-1.3861,-1.39,-1.3993,-1.3861,-1.3861,-1.3886,-1.4096,-1.4122,-1.4141,-1.3974,-1.3977,-1.3979,-1.4095,0,-1.3702,-1.3791,-1.3771,-1.3858,-1.3897,-1.3856,-1.39,-1.3914,-1.391,-1.3943,-1.3939,-1.3976,-1.3931,-1.3941,-1.3977,-1.3975,-1.4035,-1.3966,-1.4014,-1.4016,-1.4013,-1.4161,-1.4189,-1.4298,-1.4109,-1.4112,-1.4113,0,-1.3849,-1.3874,-1.3965,-1.3972,-1.3988,-1.4028,-1.4055,-1.4087,-1.4101,-1.4095,-1.4114,-1.4089,-1.4139,-1.4083,-1.4152,-1.4105,-1.4123,-1.4125,-1.4129,-1.4134,-1.4072,-1.4171,-1.4332,-1.435,-1.4136,-1.4134,-1.4133,0,-1.396,-1.4016,-1.4077,-1.4088,-1.4098,-1.4127,-1.4133,-1.4143,-1.4164,-1.4187,-1.42,-1.4229,-1.4245,-1.4268,-1.4252,-1.4212,-1.4324,-1.4266,-1.4321,-1.4322,-1.4349,-1.4348,-1.4517,-1.4358,-1.4357,-1.4357,-1.4357,0,-1.4092,-1.415,-1.4127,-1.4166,-1.4229,-1.4205,-1.4268,-1.4268,-1.4278,-1.4315,-1.428,-1.4316,-1.4292,-1.4325,-1.4313,-1.4372,-1.4379,-1.4377,-1.4373,-1.4381,-1.4382,-1.4394,-1.4387,-1.4361,-1.436,-1.4359,-1.4359,0,-1.4229,-1.4215,-1.428,-1.4283,-1.4285,-1.4332,-1.4335,-1.437,-1.4363,-1.4411,-1.4421,-1.441,-1.4448,-1.4433,-1.4473,-1.4464,-1.4541,-1.4526,-1.4537,-1.4534,-1.459,-1.4586,-1.4775,-1.4799,-1.4623,-1.4624,-1.4626,0,-1.4315,-1.4358,-1.4366,-1.4388,-1.4396,-1.4432,-1.4452,-1.443,-1.4452,-1.447,-1.4504,-1.4538,-1.4564,-1.4626,-1.4622,-1.4652,-1.4639,-1.4703,-1.4644,-1.465,-1.4642,-1.464,-1.4645,-1.4716,-1.4718,-1.472,-1.4721,0,-1.4469,-1.446,-1.449,-1.4519,-1.4543,-1.4564,-1.4582,-1.4602,-1.458,-1.4607,-1.4645,-1.4665,-1.4705,-1.474,-1.4767,-1.4772,-1.4744,-1.4739,-1.4754,-1.4764,-1.4768,-1.4768,-1.4571,-1.4736,-1.4734,-1.4733,-1.4732,-1.4732,-1.4584,-1.462,-1.4631,-1.4666,-1.4677,-1.4694,-1.4727,-1.4724,-1.4755,-1.4786,-1.477,-1.4815,-1.4826,-1.4859,-1.4868,-1.4901,-1.4877,-1.4898,-1.4903,-1.4909,-1.4917,-1.4761,-1.4906,-1.4905,-1.4905,-1.4905,-1.4904,0,-1.4738,-1.4742,-1.4774,-1.48,-1.4827,-1.4796,-1.4814,-1.4839,-1.4878,-1.4891,-1.4918,-1.4961,-1.4994,-1.4992,-1.5022,-1.505,-1.5037,-1.5059,-1.5057,-1.5059,-1.4937,-1.4922,-1.5068,-1.5068,-1.5068,-1.5068,-1.5068,-1.5068,-1.4821,-1.4882,-1.4874,-1.4939,-1.4942,-1.4986,-1.4998,-1.5014,-1.5024,-1.5074,-1.5101,-1.5099,-1.5106,-1.5136,-1.5165,-1.5163,-1.5177,-1.5203,-1.5197,-1.5084,-1.5068,-1.5052,-1.5038,-1.5206,-1.5206,-1.5316,-1.5317,-1.5318]},{"header":{"parameterUnit":"m.s-1","parameterCategory":1,"la1":30.2991,"la2":30.254,"lo1":-89.0895,"lo2":-89.0444,"dy":0.0017,"dx":0.0017,"nx":28,"ny":28,"refTime":"2025-11-04T09:00:00:Z","depth":0,"parameterNumber":3,"parameterNumberName":"V-component_of_WINDS"},"data":[0,0,0,0,0,0,0,0,0,0,0,0,0,0,0,0,0,0,0,0,0,0,0,0,0,0,0,0,0,0,0,0,0,0,0,0,0,0,0,0,0,0,0,0,0,0,0,0,0,0,0,0,0,0,0,0,0,0,-4.6871,-4.6872,0,-4.698,-4.6981,-4.6982,-4.6936,-4.6934,-4.6931,-4.6929,-4.7034,-4.704,-4.7045,0,0,0,0,0,0,0,0,0,0,0,0,0,-4.6617,-4.6621,-4.687,-4.6872,-4.6873,-4.698,-4.6981,-4.6982,-4.6937,-4.6934,-4.693,-4.6927,-4.7033,-4.7039,-4.7045,0,0,0,0,0,0,0,0,0,0,0,0,0,-4.6726,-4.6623,-4.687,-4.6863,-4.6864,-4.6979,-4.6981,-4.6983,-4.6937,-4.6933,-4.693,-4.6926,-4.7031,-4.7038,-4.7046,-4.7173,0,0,-4.707,-4.7074,0,0,0,0,0,0,0,0,-4.672,-4.6736,-4.6863,-4.6864,-4.6865,-4.6941,-4.693,-4.7046,-4.6938,-4.6909,-4.6929,-4.6924,-4.7006,-4.7016,-4.7044,-4.7178,-4.7182,-4.7071,-4.7076,-4.7079,-4.7081,0,0,0,0,0,0,0,-4.6713,-4.6731,-4.6913,-4.6865,-4.6866,-4.6853,-4.6864,-4.6952,-4.6978,-4.6912,-4.6909,-4.6922,-4.7006,-4.7037,-4.7047,-4.7184,-4.7071,-4.7078,-4.7082,-4.7086,-4.7425,-4.7429,0,0,0,0,0,0,-4.6706,-4.6725,-4.691,-4.6917,-4.6782,-4.6861,-4.6873,-4.692,-4.6977,-4.6982,-4.6926,-4.692,-4.7025,-4.7037,-4.705,-4.7201,-4.7079,-4.7086,-4.7091,-4.7421,-4.7426,-4.7431,0,0,0,0,0,0,-4.67,-4.6723,-4.6906,-4.682,-4.6842,-4.6869,-4.6922,-4.6924,-4.6956,-4.6988,-4.6991,-4.6953,-4.7023,-4.7039,-4.7143,-4.7204,-4.709,-4.7097,-4.7416,-4.7423,-4.7428,-4.7506,0,0,0,0,0,0,-4.6693,-4.6721,-4.6771,-4.6822,-4.6847,-4.6999,-4.6926,-4.6929,-4.697,-4.6964,-4.7015,-4.7019,-4.7021,-4.7131,-4.7151,-4.7213,-4.7103,-4.741,-4.7419,-4.7426,-4.7498,-4.7514,-4.7528,0,0,0,0,0,-4.6684,-4.6787,-4.6774,-4.6796,-4.691,-4.7002,-4.7017,-4.7018,-4.6975,-4.7025,-4.7045,-4.7018,-4.7195,-4.7142,-4.7164,-4.723,-4.7406,-4.7416,-4.7426,-4.7491,-4.7511,-4.7528,0,0,0,0,0,0,-4.6741,-4.6794,-4.6779,-4.6902,-4.6948,-4.6994,-4.7057,-4.7039,-4.7097,-4.7088,-4.7086,-4.7098,-4.7205,-4.7228,-4.7168,-4.7355,-4.7294,-4.7308,-4.7336,-4.7355,-4.737,-4.7362,-4.711,0,0,0,0,0,-4.6768,-4.6841,-4.6882,-4.6986,-4.701,-4.703,-4.707,-4.7067,-4.7114,-4.7133,-4.7161,-4.7206,-4.7271,-4.7315,-4.7377,-4.7501,-4.751,-4.7557,-4.7572,-4.7584,-4.7596,-4.7662,-4.7683,-4.7463,-4.7462,-4.7462,0,0,-4.6824,-4.6862,-4.6907,-4.6998,-4.7034,-4.7107,-4.7046,-4.7126,-4.7179,-4.7144,-4.7244,-4.7267,-4.7316,-4.7431,-4.7482,-4.7453,-4.7659,-4.7596,-4.7606,-4.7611,-4.7674,-4.7695,-4.7713,-4.7469,-4.7468,-4.7467,0,0,-4.6964,-4.7,-4.7091,-4.7128,-4.7183,-4.7196,-4.7217,-4.7267,-4.728,-4.7381,-4.7356,-4.7419,-4.7532,-4.7569,-4.7602,-4.7755,-4.7732,-4.7775,-4.7854,-4.7918,-4.7935,-4.7951,-4.8004,-4.8024,-4.7788,-4.7788,-4.7788,0,-4.7026,-4.7137,-4.7139,-4.7221,-4.7261,-4.7235,-4.7325,-4.736,-4.7432,-4.746,-4.7426,-4.7568,-4.7599,-4.7721,-4.7759,-4.7787,-4.781,-4.7769,-4.7933,-4.7949,-4.7963,-4.8014,-4.8034,-4.7793,-4.7792,-4.7792,-4.7791,0,-4.721,-4.7287,-4.7353,-4.7425,-4.7473,-4.7558,-4.7572,-4.7619,-4.7613,-4.7628,-4.773,-4.7767,-4.7836,-4.7865,-4.7859,-4.7986,-4.7966,-4.7933,-4.7872,-4.7989,-4.8036,-4.8056,-4.78,-4.7798,-4.7796,-4.7795,0,0,-4.7387,-4.746,-4.7484,-4.7516,-4.7576,-4.7634,-4.7718,-4.7788,-4.7828,-4.7878,-4.7947,-4.8044,-4.8014,-4.8052,-4.8049,-4.8106,-4.8223,-4.8066,-4.8067,-4.8093,-4.8364,-4.8388,-4.8411,-4.8209,-4.8212,-4.8215,-4.836,0,-4.753,-4.7679,-4.7684,-4.7819,-4.789,-4.7866,-4.7938,-4.7982,-4.7998,-4.8058,-4.8076,-4.8144,-4.81,-4.8123,-4.8178,-4.8198,-4.8278,-4.8187,-4.8271,-4.8274,-4.8258,-4.8436,-4.8461,-4.8596,-4.8379,-4.8382,-4.8384,0,-4.7717,-4.7775,-4.7918,-4.7967,-4.7997,-4.8062,-4.8126,-4.8185,-4.8233,-4.824,-4.8283,-4.8272,-4.8356,-4.8293,-4.8407,-4.8345,-4.8379,-4.8394,-4.8399,-4.8406,-4.8335,-4.8446,-4.8639,-4.8659,-4.8414,-4.8411,-4.8409,0,-4.783,-4.7944,-4.8045,-4.8073,-4.8133,-4.8179,-4.8206,-4.825,-4.8291,-4.8346,-4.8373,-4.8436,-4.8471,-4.8519,-4.8524,-4.8478,-4.8639,-4.8576,-4.8646,-4.8646,-4.8679,-4.8677,-4.8879,-4.8704,-4.8704,-4.8703,-4.8703,0,-4.7989,-4.8077,-4.8097,-4.8158,-4.8256,-4.8259,-4.8355,-4.8378,-4.8417,-4.8481,-4.8464,-4.8524,-4.8528,-4.8589,-4.8594,-4.8687,-4.8703,-4.871,-4.871,-4.8711,-4.871,-4.8732,-4.8723,-4.8709,-4.8707,-4.8706,-4.8705,0,-4.8132,-4.8149,-4.8256,-4.8305,-4.8319,-4.8388,-4.8428,-4.8486,-4.8501,-4.8583,-4.8602,-4.8625,-4.8696,-4.8706,-4.8789,-4.8792,-4.8903,-4.8894,-4.8888,-4.8886,-4.8954,-4.8947,-4.9177,-4.9207,-4.9013,-4.9015,-4.9017,0,-4.8231,-4.8299,-4.8355,-4.8397,-4.8427,-4.8496,-4.8538,-4.8544,-4.8588,-4.8648,-4.8698,-4.8768,-4.8824,-4.8938,-4.8961,-4.9024,-4.9015,-4.9091,-4.9024,-4.9023,-4.9014,-4.901,-4.9016,-4.9103,-4.9106,-4.9107,-4.9109,0,-4.8405,-4.8411,-4.8474,-4.854,-4.8592,-4.8644,-4.8693,-4.8728,-4.874,-4.879,-4.8864,-4.8908,-4.8993,-4.9061,-4.9124,-4.9149,-4.913,-4.913,-4.9149,-4.915,-4.9143,-4.9147,-4.8922,-4.9124,-4.9123,-4.9122,-4.9121,-4.912,-4.8529,-4.8588,-4.8636,-4.8707,-4.8745,-4.8791,-4.8848,-4.8871,-4.8933,-4.9004,-4.9003,-4.9083,-4.9128,-4.921,-4.924,-4.9301,-4.9276,-4.9304,-4.9311,-4.9317,-4.9323,-4.9135,-4.9312,-4.9312,-4.9311,-4.9311,-4.9311,0,-4.8701,-4.8732,-4.8797,-4.8867,-4.8922,-4.8902,-4.8955,-4.9002,-4.9074,-4.9118,-4.9174,-4.9258,-4.9324,-4.9353,-4.9418,-4.9461,-4.9454,-4.9478,-4.9474,-4.948,-4.9343,-4.9319,-4.9482,-4.9482,-4.9482,-4.9482,-4.9482,-4.9482,-4.8797,-4.8895,-4.8907,-4.9022,-4.9052,-4.9132,-4.9164,-4.9205,-4.9241,-4.9336,-4.9392,-4.9411,-4.9448,-4.9516,-4.9575,-4.9582,-4.9606,-4.9633,-4.9636,-4.9507,-4.9489,-4.9473,-4.9451,-4.9639,-4.9639,-4.9767,-4.9768,-4.9769]}]]